Retour au catalogue

BRO-19

ActifScienceSSO
NORAD 68422·PAYLOAD·🇫🇷 France

Lancé Mar 30, 2026 depuis Vandenberg Space Force Base

Loading…

Prochains Passages (prochaines 24 heures)

TLE

FraisSource: Space-Track

Époque: Sep 14, 2026, 02:34 UTC

1 68422U 26067G   26257.10758297  .00002907  00000-0  14089-3 0  9997
2 68422  97.4573 214.3561 0001153  64.5517 295.5837 15.19317162 25449

Suivez BRO-19 en temps réel avec AllMySat

Download on the App Store